Погода в Сен-Тропе

Франция     43°15′59″N   6°38′10″E
темп.,
°C
ветер,
м/с
пор.,
м/с
влажн.,
%
обл.,
%
осадки,
мм/ч
давл.,
гПа
погр.,
м
10 августа, ср
ср1023:00+28зюз33615 0.0 101764
02:00+27сз335728 0.0 1017112
05:00+26с3458100 0.0 1017202
08:00+27ссв4567100 0.0 1017350
11:00+27всв777019 0.1 1018484
14:00+27юв44620 0.2 1018514
17:00+27юв33610 0.0 1017420
20:00+27ююз11591 0.1 1016220
11 августа, чт
чт1123:00+27з33624 0.1 1016186
02:00+26сз33631 0.1 1016156
05:00+26с33640 0.0 1016213
08:00+26ссв566933 0.1 1017456
11:00+27в556221 0.0 1017745
14:00+27юв33552 0.0 1017585
17:00+27ююв34585 0.0 1015451
20:00+27ююз235941 0.0 1015251
12 августа, пт
пт1223:00+27з45580 0.0 1014187
02:00+26зсз34555 0.0 1014167
05:00+26зсз33545 0.0 1013164
08:00+25ссз33555 0.0 1013182
11:00+26всв115278 0.0 1013214
14:00+27ю335596 0.0 1013388
17:00+28ююз77620 0.0 1011577
20:00+27ююз66710 0.0 1011602
13 августа, сб
сб1323:00+27юз56770 0.0 1012710
02:00+26з11750 0.0 1011366
05:00+26с227811 0.1 1011269
08:00+26всв988090 0.3 1012751
11:00+25в10107640 0.1 1013856
14:00+25в99759 0.1 1014813
17:00+26в67730 0.0 1014715
20:00+26всв56690 0.0 1013573
14 августа, вс
вс1423:00+26ссв34640 0.0 1015440
02:00+25сз33665 0.0 1015206
05:00+25сз22613 0.0 1014155
08:00+25с2260100 0.0 1013177
11:00+26в1159100 0.0 1014309
14:00+27ю5561100 0.0 1013497
17:00+27ююз666066 0.0 1011435
20:00+27ююз446112 0.0 1011475